Temperature
19 18 18 18 18 17 17 17 17 16 16 16 16 16 16 16 16 16 16 15 15 15 15 15 15 15 15 15 15 15 15 15 15 16 16 17 17 18 18 18 18 18 18
19 19 19 19 18 17 17 17 16 16 16 15 15 15 15 15 16 16 15 15 14 14 14 14 14 14 15 15 15 15 15 15 15 15 16 16 17 17 18 18 18 18 18
21 20 19 19 19 18 17 17 16 16 15 15 15 15 15 15 15 15 15 15 14 14 14 14 14 14 14 14 14 14 15 15 15 15 16 16 17 18 18 18 18 18 18
21 20 20 19 19 18 18 17 16 16 15 14 14 14 14 14 14 14 14 14 14 14 14 14 14 14 14 14 14 14 14 15 15 15 16 16 17 17 18 18 18 18 18
21 21 20 19 19 18 18 17 16 15 15 14 13 13 13 13 13 13 13 13 13 14 14 14 14 13 13 13 14 14 14 14 15 15 15 16 16 17 17 18 18 18 18
22 21 20 20 19 18 17 17 16 15 14 14 13 12 12 12 12 12 12 13 13 13 14 14 13 13 13 13 13 13 14 14 14 15 15 15 15 16 17 17 18 18 18
22 21 20 20 19 18 17 16 16 15 14 13 13 12 12 11 11 12 12 12 12 13 13 13 13 12 12 12 12 12 13 13 14 14 15 15 15 15 16 17 18 18 18
22 21 20 19 19 18 17 16 15 14 13 13 12 12 11 11 11 11 11 11 11 11 12 12 12 12 12 12 12 12 12 12 13 13 14 14 15 15 16 16 17 18 18
22 21 20 19 18 17 16 15 14 14 13 12 12 11 11 11 10 10 10 10 10 11 11 11 11 11 11 11 11 11 11 12 12 12 13 13 14 15 15 16 16 17 18
21 20 19 18 17 16 15 15 14 13 12 12 11 11 11 10 10 9 9 9 10 10 10 10 10 10 11 11 11 11 11 11 11 12 12 13 13 14 15 15 16 17 17
20 19 18 17 16 15 15 14 13 12 12 11 11 10 10 10 9 9 9 9 9 9 9 9 9 10 10 10 10 11 11 11 11 11 11 12 12 13 14 14 15 16 16
19 18 17 16 15 15 14 13 12 12 11 11 10 10 10 9 9 9 9 9 9 8 8 8 9 9 9 9 10 10 11 11 11 11 11 11 11 12 13 13 14 15 16
19 18 17 16 15 14 13 12 12 12 11 11 10 10 9 9 9 9 8 8 8 8 8 8 8 8 8 9 9 10 10 10 11 11 11 11 11 11 12 12 13 14 15
18 17 16 15 14 13 13 12 12 11 11 10 10 9 9 9 8 8 8 8 8 8 8 8 8 8 8 8 9 9 10 10 10 10 10 10 11 11 11 11 12 13 14
18 17 15 15 14 13 12 12 11 11 10 10 9 9 9 8 8 8 8 8 8 8 8 7 7 7 7 8 8 9 9 9 10 10 10 10 10 10 11 11 11 12 13
17 16 15 14 13 13 12 12 11 11 10 10 9 9 8 8 8 8 8 8 7 7 7 7 7 7 7 8 8 8 8 9 9 10 10 10 10 10 10 10 10 11 12
17 16 15 14 13 13 12 12 11 10 10 9 9 9 8 8 8 8 8 7 7 7 7 7 7 7 7 7 7 8 8 8 9 9 9 9 10 10 10 10 10 10 11
16 15 14 13 13 12 12 11 11 10 10 9 9 8 8 8 8 7 7 7 7 7 7 7 7 7 7 7 7 7 7 8 8 9 9 9 10 10 10 10 10 10 11
15 14 13 13 12 12 11 11 10 10 9 9 8 8 8 7 7 7 7 7 7 7 7 7 7 7 7 7 7 7 7 7 8 8 9 9 9 9 10 9 9 10 10
15 14 13 13 12 12 11 10 10 9 9 8 8 8 8 7 7 7 7 7 7 7 7 7 7 7 7 7 6 6 6 7 7 8 8 9 9 9 9 9 9 9 9
14 14 13 12 12 11 10 10 9 9 8 8 8 8 8 8 8 8 8 8 7 7 7 7 7 7 7 6 6 6 6 6 7 7 8 8 9 9 9 9 9 9 9
14 13 13 12 11 11 10 9 9 8 8 8 8 8 8 8 8 8 8 8 8 7 7 7 7 7 7 6 6 6 6 6 7 7 8 8 8 9 9 9 9 9 9
14 13 12 12 11 11 10 9 9 8 8 8 8 8 8 8 8 8 8 8 8 7 7 7 7 7 6 6 6 6 6 6 7 7 7 8 8 9 9 9 9 9 9
13 13 12 11 11 10 10 9 8 8 8 7 7 7 8 8 8 8 8 8 8 7 7 6 6 6 6 6 6 6 6 7 7 7 7 7 8 8 8 9 9 9 9
13 12 12 11 11 10 9 9 8 8 8 7 7 7 8 8 8 8 8 8 8 7 7 6 6 6 6 6 6 6 6 6 7 7 7 7 8 8 8 8 9 9 9
13 12 11 11 10 9 9 8 8 8 7 7 7 7 8 8 8 8 8 8 8 8 7 7 6 6 6 6 6 6 6 6 7 7 7 7 8 8 8 8 9 9 9
Wind_Speed
9 7 6 7 7 6 5 4 4 5 5 5 6 6 5 5 4 2 3 4 5 6 4 4 4 3 2 2 4 4 5 5 6 6 7 8 11 11 10 10 9 12 14
8 7 5 5 5 4 2 1 3 5 5 5 6 5 6 6 5 2 1 1 2 4 5 4 4 3 3 2 2 2 2 4 4 4 4 4 7 9 12 10 10 11 10
7 6 3 2 1 1 0 2 3 3 4 6 6 7 7 6 5 5 3 3 3 3 3 4 4 4 3 2 2 2 2 3 4 4 3 3 3 3 5 9 9 8 7
5 4 2 0 2 2 3 3 3 3 4 6 7 9 9 9 8 6 5 6 6 5 4 3 3 3 4 4 4 2 2 3 3 4 4 5 3 1 1 3 6 8 7
4 3 2 2 3 4 5 4 4 4 5 6 8 9 9 8 8 9 10 9 8 7 5 4 2 2 3 3 4 4 3 2 3 3 4 5 5 4 3 3 4 5 6
3 3 3 2 3 4 5 5 5 5 6 6 8 8 9 9 10 11 11 10 7 5 5 3 2 2 2 3 4 4 5 4 4 4 4 4 4 4 5 5 5 6 6
2 2 3 4 4 5 5 5 6 7 6 7 7 7 8 9 10 11 9 9 7 7 7 6 2 3 3 4 4 4 5 5 5 5 5 4 5 6 6 5 4 4 4
3 5 6 6 6 7 7 6 6 6 6 7 7 7 9 8 7 9 10 10 9 9 9 8 5 5 5 6 5 4 5 5 5 6 6 5 6 6 6 5 5 3 3
7 8 9 9 8 8 7 7 7 6 6 7 8 8 7 7 9 9 10 9 8 10 10 10 10 8 7 7 6 6 6 5 5 5 5 5 5 6 6 6 5 3 4
9 11 11 11 10 9 8 8 7 7 7 8 7 10 8 8 8 9 9 9 9 9 10 10 10 9 9 8 8 7 7 8 7 5 5 5 5 6 7 6 5 4 4
11 11 10 10 10 11 9 8 8 8 7 7 7 7 8 8 9 8 9 8 9 9 10 10 10 10 10 10 9 9 9 9 8 7 7 7 6 5 6 7 6 5 3
10 10 11 10 10 11 11 10 10 9 8 8 7 8 8 8 9 10 9 9 9 10 10 10 11 12 12 11 11 11 11 10 10 9 9 8 7 7 6 6 7 6 4
10 10 10 10 11 11 11 12 12 11 11 10 9 9 10 10 10 10 10 10 10 10 11 11 11 11 12 12 12 11 11 11 10 10 10 9 8 8 6 6 6 6 6
9 10 9 8 9 10 10 11 12 11 12 11 11 10 11 11 10 11 11 11 11 11 11 11 11 11 12 12 12 13 12 11 11 10 10 9 9 9 8 7 7 7 7
10 11 10 9 9 9 9 10 11 11 11 12 12 11 11 11 11 11 11 12 12 14 12 12 12 11 12 13 13 12 14 11 12 11 11 11 11 12 10 7 6 7 7
11 12 12 12 11 10 10 10 10 10 10 11 12 12 12 12 12 12 12 12 12 12 12 13 13 14 15 15 12 9 9 9 10 11 11 11 11 12 13 12 10 8 8
12 12 13 11 10 10 9 10 10 11 11 11 12 12 12 13 13 15 14 14 13 13 12 13 13 14 14 16 16 14 10 10 10 10 10 13 14 13 11 12 13 11 9
12 12 13 13 12 12 11 10 12 11 12 12 13 13 13 15 14 14 14 14 12 12 12 13 13 13 14 16 15 14 12 12 11 11 11 11 10 9 9 10 11 10 10
10 11 12 13 12 12 11 12 13 12 13 14 13 14 15 15 15 15 15 13 12 12 12 12 12 12 12 14 14 13 9 9 11 10 11 11 11 11 11 9 10 10 9
10 11 12 12 11 11 11 12 13 13 14 14 15 15 15 15 16 15 14 12 11 12 12 12 11 12 12 12 12 12 8 9 8 8 9 11 11 12 12 9 8 9 9
10 11 11 11 11 10 10 12 12 13 13 14 15 16 15 15 15 13 11 11 11 11 11 12 10 10 10 10 11 12 8 7 6 6 7 7 11 12 13 11 7 7 7
11 11 10 10 10 10 10 12 12 12 13 15 16 16 16 15 14 12 12 11 10 10 10 9 9 7 6 6 8 11 10 6 4 4 4 4 9 12 13 10 7 8 7
10 11 11 11 10 10 10 12 12 13 14 15 16 16 16 14 12 11 11 10 9 8 8 7 7 6 5 3 6 8 8 7 4 1 0 2 6 8 9 10 9 8 6
10 10 12 12 11 11 11 11 11 12 14 15 16 15 14 14 11 9 9 8 8 7 8 8 7 6 4 3 1 3 5 7 5 4 4 6 7 7 7 8 7 7 6
9 10 10 11 12 11 11 11 11 12 14 15 15 15 14 12 11 9 8 8 5 4 5 7 7 6 5 4 5 3 1 2 3 4 5 5 5 6 7 7 7 8 7
8 9 11 12 12 12 11 10 11 11 13 13 14 12 12 11 10 9 8 4 4 3 3 4 5 5 3 5 4 3 2 2 1 2 4 5 6 7 8 8 8 8 8
Wind_Direction
117 118 118 114 107 97 85 60 35 33 -0 12 348 336 337 338 318 320 64 22 5 349 320 322 312 301 287 296 305 275 269 251 242 237 248 242 225 216 212 211 211 211 214
132 134 137 127 114 110 99 123 42 27 358 4 322 304 323 315 296 331 21 0 7 340 333 335 314 311 296 288 292 277 277 280 258 237 239 247 232 221 213 201 207 215 211
139 141 139 128 125 99 19 24 36 5 5 345 319 331 325 312 317 335 322 348 335 305 295 315 321 322 311 303 288 270 261 276 275 252 236 239 239 233 210 200 200 199 205
152 157 180 257 307 339 351 29 23 12 358 341 336 330 316 312 321 323 329 330 311 291 275 267 302 320 316 317 304 315 284 272 280 291 277 280 307 293 287 211 202 190 197
175 171 243 277 315 339 346 2 11 10 358 346 330 323 316 322 321 321 314 308 296 270 258 242 234 280 294 318 325 323 305 277 264 272 288 296 289 251 233 230 216 192 188
211 220 259 292 323 332 340 351 360 356 352 340 326 316 316 315 311 303 294 291 288 288 282 273 227 259 298 314 308 309 302 287 273 267 265 273 279 272 255 234 209 195 199
259 280 320 340 344 338 344 350 350 351 346 331 318 315 313 308 296 293 305 317 318 315 314 308 289 280 281 280 274 276 284 288 281 274 269 266 261 273 278 263 243 209 188
352 350 352 354 350 347 350 350 347 342 334 324 315 311 301 300 306 321 325 313 302 295 292 303 297 273 258 262 258 260 261 263 268 274 279 278 271 272 278 276 268 242 199
356 351 355 353 356 354 352 347 345 339 332 322 311 295 298 317 316 309 299 298 302 305 313 321 310 294 275 259 253 251 251 252 251 259 267 268 275 280 279 282 282 254 222
355 357 353 348 351 346 345 345 345 339 328 317 315 317 325 312 304 305 302 298 294 292 293 290 289 286 279 263 244 245 243 234 234 235 247 256 262 277 280 275 279 283 261
354 347 345 347 344 338 338 341 337 331 325 322 319 314 310 311 306 298 297 299 301 301 296 293 289 285 280 273 257 245 247 243 238 236 232 232 236 254 274 277 270 265 271
348 343 343 343 339 336 335 333 331 324 322 323 320 314 312 306 302 302 303 301 298 296 296 292 288 284 280 274 265 252 246 240 237 234 231 229 228 227 242 260 267 265 257
349 344 343 341 335 334 331 327 323 322 324 322 318 315 312 308 306 304 302 300 297 294 293 290 288 284 282 279 275 265 251 242 237 234 230 227 222 223 225 234 245 251 249
352 346 343 337 333 329 327 322 320 322 321 321 317 312 309 307 305 303 300 298 296 294 289 287 284 282 280 277 275 272 261 248 239 234 232 229 223 220 219 226 231 233 236
345 341 336 331 330 327 323 319 318 321 323 319 314 310 308 306 303 300 299 297 295 293 293 291 287 283 279 272 264 263 263 253 242 236 231 232 224 221 215 215 213 217 220
339 335 332 331 328 324 318 319 319 322 321 314 311 309 307 305 303 301 298 295 295 294 292 289 287 282 278 281 286 283 278 272 258 244 234 235 232 225 211 205 198 202 213
336 335 334 328 323 320 321 323 321 320 318 314 311 311 310 308 305 305 304 300 297 294 290 286 283 278 273 272 269 265 263 263 260 250 239 237 234 214 208 204 201 204 212
339 336 329 325 324 325 325 326 321 320 319 317 316 315 313 309 306 304 300 297 295 293 289 285 282 277 273 267 258 252 254 256 251 243 233 226 243 236 213 204 205 207 207
338 330 325 324 324 323 329 326 320 320 319 319 319 317 313 309 306 303 301 299 297 294 290 286 282 278 273 264 251 239 252 250 248 242 232 221 224 229 217 208 206 207 204
332 327 326 325 323 329 329 323 322 323 323 323 319 314 309 306 303 299 299 299 297 294 293 289 286 282 276 259 238 227 244 246 244 239 240 232 224 215 206 208 209 208 202
330 330 331 327 327 328 328 323 323 326 327 323 317 312 309 306 300 298 301 301 299 298 295 292 287 282 275 259 235 223 233 241 239 235 233 227 206 200 201 207 210 214 199
333 333 329 327 327 330 330 324 327 330 327 321 317 314 312 309 308 307 305 303 300 300 301 300 297 293 281 258 232 215 221 240 248 238 241 233 202 196 197 203 196 183 183
333 330 330 327 328 333 333 328 331 331 326 321 319 316 312 308 305 305 307 307 306 307 310 313 313 313 306 254 211 210 213 218 236 271 259 195 191 189 199 207 186 176 193
328 331 329 328 329 334 334 334 334 331 324 321 319 316 313 311 312 311 308 309 313 320 325 325 327 326 326 342 278 207 200 201 210 209 189 181 188 205 212 191 194 207 214
327 328 327 327 328 332 331 336 337 332 325 321 318 317 316 313 314 312 309 308 324 330 313 322 329 332 335 0 359 345 292 210 195 188 185 188 187 200 209 203 197 204 208
326 327 328 328 327 328 330 336 336 332 325 320 319 318 317 317 317 317 318 310 283 249 255 275 298 314 338 345 1 34 32 14 53 200 207 210 212 212 212 209 205 204 207
Height
1517 1518 1518 1519 1519 1519 1518 1518 1517 1516 1514 1513 1511 1510 1509 1507 1505 1504 1501 1498 1496 1494 1492 1490 1488 1486 1484 1482 1482 1481 1483 1484 1486 1489 1490 1492 1493 1495 1496 1498 1499 1501 1503
1517 1518 1519 1519 1519 1519 1518 1517 1516 1514 1513 1512 1510 1509 1507 1505 1504 1502 1499 1496 1494 1492 1490 1488 1485 1483 1481 1480 1479 1479 1479 1480 1482 1484 1486 1487 1490 1489 1491 1492 1494 1496 1498
1515 1517 1518 1519 1519 1518 1517 1516 1514 1512 1511 1509 1507 1506 1504 1502 1501 1499 1497 1494 1492 1490 1487 1485 1483 1482 1480 1478 1478 1478 1477 1478 1478 1480 1482 1484 1485 1485 1486 1487 1489 1492 1494
1514 1516 1517 1517 1517 1517 1516 1514 1512 1510 1508 1506 1505 1502 1501 1499 1497 1496 1494 1491 1489 1487 1485 1483 1481 1479 1478 1477 1476 1476 1476 1476 1476 1477 1478 1481 1482 1483 1482 1485 1486 1488 1489
1512 1514 1515 1515 1515 1515 1514 1512 1510 1508 1505 1503 1502 1500 1497 1495 1493 1491 1489 1487 1485 1484 1482 1480 1478 1477 1476 1475 1474 1474 1474 1474 1474 1475 1476 1477 1479 1480 1482 1482 1483 1485 1486
1510 1511 1512 1512 1512 1512 1511 1509 1507 1505 1503 1501 1499 1497 1494 1491 1488 1486 1484 1482 1481 1481 1479 1478 1476 1474 1473 1472 1471 1471 1471 1471 1471 1472 1474 1475 1476 1477 1479 1480 1481 1482 1483
1508 1509 1510 1510 1509 1509 1508 1506 1504 1502 1500 1497 1495 1493 1490 1487 1484 1482 1480 1478 1477 1476 1475 1474 1472 1471 1470 1469 1468 1467 1467 1467 1467 1468 1469 1471 1472 1474 1475 1477 1478 1478 1480
1505 1507 1507 1507 1507 1506 1505 1503 1501 1498 1496 1494 1491 1488 1486 1483 1480 1478 1476 1473 1472 1471 1470 1470 1468 1467 1466 1466 1465 1464 1464 1463 1463 1463 1464 1466 1467 1469 1471 1473 1475 1475 1477
1504 1505 1506 1505 1504 1503 1502 1500 1497 1494 1492 1489 1487 1484 1481 1478 1476 1473 1470 1468 1467 1465 1464 1463 1462 1462 1461 1461 1461 1460 1460 1459 1459 1459 1459 1460 1462 1464 1465 1467 1470 1473 1473
1504 1504 1504 1504 1502 1501 1499 1496 1494 1491 1488 1485 1482 1480 1477 1473 1470 1468 1465 1463 1461 1459 1457 1456 1455 1455 1455 1455 1455 1455 1455 1455 1454 1454 1454 1455 1456 1458 1460 1462 1465 1467 1470
1503 1504 1503 1502 1500 1498 1496 1493 1490 1487 1484 1481 1478 1475 1471 1468 1465 1463 1460 1458 1455 1453 1451 1449 1448 1448 1448 1448 1449 1449 1449 1449 1449 1450 1450 1450 1451 1452 1454 1456 1459 1462 1465
1502 1502 1501 1499 1498 1495 1493 1490 1487 1484 1481 1477 1474 1470 1467 1464 1461 1458 1455 1452 1449 1447 1445 1443 1442 1441 1440 1441 1441 1442 1442 1443 1444 1444 1445 1445 1446 1447 1448 1450 1453 1456 1460
1501 1500 1499 1497 1495 1492 1490 1487 1484 1480 1477 1473 1470 1466 1462 1459 1456 1453 1449 1446 1443 1441 1438 1437 1435 1434 1433 1433 1433 1434 1435 1436 1437 1438 1439 1440 1440 1441 1443 1444 1446 1450 1454
1499 1498 1496 1494 1492 1489 1486 1483 1480 1477 1473 1469 1466 1462 1458 1454 1451 1447 1444 1441 1438 1435 1432 1430 1428 1427 1426 1425 1425 1425 1426 1428 1429 1431 1432 1434 1435 1436 1437 1438 1440 1443 1447
1497 1496 1494 1491 1489 1486 1483 1480 1477 1473 1469 1465 1461 1457 1454 1450 1446 1442 1438 1435 1431 1429 1426 1423 1421 1419 1418 1417 1417 1417 1418 1419 1421 1423 1425 1427 1429 1430 1431 1432 1434 1437 1440
1495 1493 1491 1488 1486 1483 1479 1476 1473 1469 1465 1461 1457 1453 1449 1444 1440 1437 1433 1429 1425 1422 1419 1416 1413 1411 1410 1410 1409 1409 1409 1410 1412 1414 1417 1420 1422 1424 1425 1426 1428 1431 1433
1493 1491 1488 1486 1482 1479 1476 1472 1469 1465 1461 1457 1452 1448 1444 1439 1435 1431 1427 1423 1419 1415 1412 1408 1405 1403 1401 1400 1400 1400 1401 1402 1403 1406 1409 1413 1416 1418 1419 1420 1422 1424 1426
1490 1488 1485 1482 1479 1476 1473 1469 1465 1461 1457 1452 1448 1443 1439 1434 1429 1425 1420 1416 1413 1409 1405 1401 1398 1395 1392 1391 1391 1391 1392 1393 1395 1398 1402 1405 1409 1412 1413 1415 1416 1418 1420
1488 1485 1482 1479 1476 1472 1469 1465 1461 1457 1453 1448 1443 1438 1433 1428 1423 1419 1415 1410 1406 1402 1398 1394 1390 1387 1384 1383 1382 1383 1384 1385 1387 1391 1395 1398 1402 1405 1408 1410 1412 1413 1415
1485 1482 1479 1476 1473 1469 1465 1461 1457 1453 1448 1443 1438 1433 1428 1423 1418 1413 1409 1405 1401 1396 1392 1388 1384 1380 1377 1375 1375 1376 1377 1378 1380 1384 1388 1392 1396 1399 1402 1405 1407 1409 1411
1482 1479 1476 1473 1469 1466 1462 1457 1453 1449 1444 1438 1433 1428 1423 1418 1413 1409 1405 1400 1395 1391 1387 1382 1378 1374 1371 1369 1369 1369 1371 1373 1376 1379 1383 1386 1390 1394 1397 1401 1404 1406 1408
1479 1476 1473 1470 1466 1462 1458 1454 1450 1445 1439 1434 1428 1423 1418 1414 1409 1405 1400 1396 1391 1387 1382 1377 1373 1370 1366 1364 1364 1364 1367 1369 1372 1376 1379 1382 1386 1389 1393 1397 1400 1403 1405
1476 1473 1470 1466 1463 1459 1455 1451 1446 1441 1435 1429 1424 1419 1414 1409 1405 1401 1397 1392 1388 1383 1379 1374 1370 1366 1363 1361 1361 1362 1364 1367 1370 1373 1376 1379 1382 1386 1390 1393 1396 1399 1402
1473 1470 1467 1463 1460 1456 1452 1447 1442 1437 1431 1426 1420 1415 1410 1406 1402 1398 1394 1390 1385 1381 1376 1372 1368 1365 1362 1361 1360 1361 1363 1365 1368 1371 1374 1377 1380 1383 1387 1390 1393 1395 1398
1470 1467 1464 1460 1456 1452 1448 1444 1439 1433 1428 1422 1417 1412 1408 1404 1399 1395 1391 1387 1383 1379 1375 1370 1367 1364 1362 1360 1360 1361 1363 1365 1367 1370 1373 1375 1378 1381 1384 1386 1389 1392 1395
1467 1464 1461 1457 1453 1449 1445 1440 1435 1430 1425 1419 1414 1410 1406 1402 1398 1393 1389 1385 1381 1377 1373 1369 1366 1363 1361 1360 1360 1361 1362 1364 1366 1369 1371 1373 1376 1378 1381 1383 1386 1388 1391